[[{"header":{"parameterUnit":"m.s-1","parameterCategory":1,"la1":30.2991,"la2":30.254,"lo1":-89.0895,"lo2":-89.0444,"dy":0.0017,"dx":0.0017,"nx":28,"ny":28,"refTime":"2026-02-10T03:00:00:Z","depth":0,"parameterNumber":2,"parameterNumberName":"U-component_of_WINDS"},"data":[0,0,0,0,0,0,0,0,0,0,0,0,0,0,0,0,0,0,0,0,0,0,0,0,0,0,0,0,0,0,0,0,0,0,0,0,0,0,0,0,0,0,0,0,0,0,0,0,0,0,0,0,0,0,0,0,0,0,-1.2429,-1.2429,0,-1.2441,-1.2441,-1.2441,-1.2395,-1.2393,-1.2392,-1.2391,-1.2407,-1.2409,-1.241,0,0,0,0,0,0,0,0,0,0,0,0,0,-1.2371,-1.2372,-1.2429,-1.2429,-1.2429,-1.2441,-1.2441,-1.2441,-1.2395,-1.2393,-1.2392,-1.239,-1.2407,-1.2409,-1.2411,0,0,0,0,0,0,0,0,0,0,0,0,0,-1.2391,-1.2373,-1.2429,-1.2408,-1.2406,-1.2441,-1.2441,-1.2441,-1.2395,-1.2393,-1.2391,-1.2389,-1.2406,-1.2408,-1.2411,-1.2469,0,0,-1.2419,-1.242,0,0,0,0,0,0,0,0,-1.239,-1.2393,-1.2411,-1.2409,-1.2407,-1.2414,-1.2426,-1.2451,-1.2396,-1.2399,-1.2391,-1.2388,-1.2411,-1.2413,-1.242,-1.2469,-1.247,-1.2419,-1.2421,-1.2422,-1.2422,0,0,0,0,0,0,0,-1.2388,-1.2392,-1.2434,-1.2411,-1.2409,-1.2399,-1.2399,-1.2431,-1.2417,-1.2399,-1.2396,-1.2397,-1.241,-1.2418,-1.242,-1.247,-1.2419,-1.2421,-1.2423,-1.2424,-1.2568,-1.257,0,0,0,0,0,0,-1.2389,-1.2391,-1.2433,-1.2434,-1.2393,-1.2401,-1.2402,-1.2414,-1.2417,-1.2415,-1.2399,-1.2395,-1.2414,-1.2417,-1.2421,-1.2489,-1.2422,-1.2424,-1.2426,-1.2566,-1.2568,-1.2571,0,0,0,0,0,0,-1.2388,-1.2393,-1.2433,-1.2412,-1.2416,-1.2405,-1.2418,-1.2415,-1.2423,-1.2417,-1.2414,-1.2409,-1.2413,-1.2417,-1.2457,-1.2488,-1.2425,-1.2428,-1.2563,-1.2566,-1.257,-1.2625,0,0,0,0,0,0,-1.2387,-1.2393,-1.2414,-1.2413,-1.2417,-1.2468,-1.242,-1.2417,-1.2427,-1.2422,-1.2426,-1.2424,-1.2412,-1.2453,-1.2459,-1.2491,-1.243,-1.256,-1.2565,-1.2569,-1.262,-1.2629,-1.2638,0,0,0,0,0,-1.2385,-1.243,-1.2415,-1.2421,-1.2443,-1.2469,-1.2472,-1.2456,-1.243,-1.2451,-1.2447,-1.2424,-1.2484,-1.2458,-1.2464,-1.2497,-1.2558,-1.2563,-1.2568,-1.2616,-1.2628,-1.2637,0,0,0,0,0,0,-1.2437,-1.2429,-1.2413,-1.2459,-1.2465,-1.2462,-1.2488,-1.2468,-1.2483,-1.2478,-1.2458,-1.2459,-1.2503,-1.2504,-1.2475,-1.2553,-1.2517,-1.2523,-1.2551,-1.2562,-1.2571,-1.2569,-1.2432,0,0,0,0,0,-1.2453,-1.2474,-1.2467,-1.2508,-1.2512,-1.25,-1.2511,-1.2497,-1.2503,-1.2506,-1.2505,-1.2513,-1.2534,-1.2548,-1.2567,-1.262,-1.2621,-1.2646,-1.2655,-1.2662,-1.2668,-1.2697,-1.2708,-1.2588,-1.2588,-1.2587,0,0,-1.2488,-1.2487,-1.2501,-1.2519,-1.2522,-1.2545,-1.2502,-1.2529,-1.2546,-1.2511,-1.2548,-1.2547,-1.2555,-1.2602,-1.2623,-1.2604,-1.2702,-1.2669,-1.2674,-1.2677,-1.2704,-1.2715,-1.2725,-1.2591,-1.259,-1.259,0,0,-1.2563,-1.2564,-1.2598,-1.2602,-1.2607,-1.2599,-1.2607,-1.2607,-1.2605,-1.2641,-1.2615,-1.2637,-1.2672,-1.2679,-1.2687,-1.2766,-1.2746,-1.2773,-1.2819,-1.2848,-1.2857,-1.2865,-1.2894,-1.2904,-1.2779,-1.2779,-1.2779,0,-1.2606,-1.2639,-1.2619,-1.2647,-1.2656,-1.2623,-1.2659,-1.2664,-1.2676,-1.2683,-1.2662,-1.2706,-1.271,-1.2758,-1.2777,-1.2785,-1.2794,-1.2772,-1.2857,-1.2865,-1.2873,-1.29,-1.291,-1.2782,-1.2782,-1.2781,-1.2781,0,-1.2692,-1.2715,-1.2742,-1.2753,-1.2765,-1.2797,-1.2783,-1.2798,-1.2783,-1.2778,-1.2816,-1.2819,-1.2837,-1.2848,-1.2835,-1.2895,-1.2883,-1.286,-1.2823,-1.2888,-1.2913,-1.2923,-1.2787,-1.2786,-1.2785,-1.2784,0,0,-1.28,-1.2798,-1.2809,-1.2813,-1.2817,-1.2835,-1.2866,-1.2883,-1.2896,-1.2906,-1.2932,-1.2963,-1.2942,-1.2951,-1.2939,-1.2964,-1.3026,-1.2937,-1.2937,-1.2954,-1.3093,-1.3111,-1.3123,-1.3013,-1.3015,-1.3016,-1.3093,0,-1.2874,-1.2925,-1.2908,-1.296,-1.2982,-1.2952,-1.2979,-1.2985,-1.2981,-1.3,-1.2996,-1.3018,-1.2988,-1.2993,-1.3017,-1.3014,-1.3054,-1.3008,-1.3038,-1.304,-1.3037,-1.3136,-1.3154,-1.3226,-1.3102,-1.3104,-1.3105,0,-1.2966,-1.2978,-1.3032,-1.3032,-1.3041,-1.3065,-1.3079,-1.3098,-1.3104,-1.31,-1.311,-1.3093,-1.3125,-1.3087,-1.3132,-1.3101,-1.3113,-1.3113,-1.3116,-1.3118,-1.3076,-1.3141,-1.3249,-1.326,-1.312,-1.3119,-1.3118,0,-1.304,-1.307,-1.3106,-1.3111,-1.3111,-1.3129,-1.3131,-1.3135,-1.3146,-1.316,-1.3167,-1.3185,-1.3195,-1.3209,-1.3197,-1.3171,-1.3244,-1.3206,-1.3242,-1.3243,-1.3259,-1.3258,-1.337,-1.3266,-1.3266,-1.3266,-1.3266,0,-1.3124,-1.3159,-1.3139,-1.3161,-1.3199,-1.318,-1.3219,-1.3217,-1.3222,-1.3244,-1.322,-1.3242,-1.3225,-1.3246,-1.3238,-1.3276,-1.3281,-1.3279,-1.3276,-1.3281,-1.3281,-1.3288,-1.3283,-1.3269,-1.3268,-1.3268,-1.3267,0,-1.3213,-1.3201,-1.3238,-1.3236,-1.3236,-1.3264,-1.3263,-1.3284,-1.3278,-1.3307,-1.3313,-1.3304,-1.3328,-1.3317,-1.3343,-1.3337,-1.3387,-1.3377,-1.3384,-1.3381,-1.3418,-1.3415,-1.3539,-1.3555,-1.3441,-1.3442,-1.3443,0,-1.3268,-1.3293,-1.3293,-1.3306,-1.3308,-1.3329,-1.334,-1.3323,-1.3336,-1.3346,-1.3367,-1.3388,-1.3404,-1.3443,-1.344,-1.346,-1.3451,-1.3493,-1.3454,-1.3458,-1.3452,-1.3451,-1.3453,-1.3501,-1.3502,-1.3503,-1.3504,0,-1.3366,-1.3359,-1.3375,-1.3389,-1.3403,-1.3414,-1.3423,-1.3435,-1.3419,-1.3435,-1.3458,-1.347,-1.3496,-1.3517,-1.3535,-1.3538,-1.3519,-1.3517,-1.3526,-1.3531,-1.3534,-1.3534,-1.3405,-1.3514,-1.3513,-1.3512,-1.3512,-1.3511,-1.3439,-1.3461,-1.3464,-1.3483,-1.3488,-1.3497,-1.3517,-1.3513,-1.3531,-1.3549,-1.3539,-1.3566,-1.3573,-1.3594,-1.36,-1.3622,-1.3606,-1.362,-1.3623,-1.3627,-1.3632,-1.3531,-1.3625,-1.3625,-1.3625,-1.3625,-1.3624,0,-1.3537,-1.3537,-1.3555,-1.3568,-1.3583,-1.3562,-1.3571,-1.3586,-1.361,-1.3617,-1.3633,-1.3661,-1.3682,-1.368,-1.37,-1.3718,-1.371,-1.3724,-1.3723,-1.3724,-1.3645,-1.3635,-1.373,-1.373,-1.373,-1.373,-1.373,-1.373,-1.3589,-1.3624,-1.3617,-1.3655,-1.3656,-1.3681,-1.3688,-1.3697,-1.3703,-1.3734,-1.375,-1.3749,-1.3753,-1.3773,-1.3792,-1.3791,-1.38,-1.3817,-1.3814,-1.374,-1.3729,-1.3719,-1.371,-1.3819,-1.382,-1.3891,-1.3891,-1.3892]},{"header":{"parameterUnit":"m.s-1","parameterCategory":1,"la1":30.2991,"la2":30.254,"lo1":-89.0895,"lo2":-89.0444,"dy":0.0017,"dx":0.0017,"nx":28,"ny":28,"refTime":"2026-02-10T03:00:00:Z","depth":0,"parameterNumber":3,"parameterNumberName":"V-component_of_WINDS"},"data":[0,0,0,0,0,0,0,0,0,0,0,0,0,0,0,0,0,0,0,0,0,0,0,0,0,0,0,0,0,0,0,0,0,0,0,0,0,0,0,0,0,0,0,0,0,0,0,0,0,0,0,0,0,0,0,0,0,0,0.3504,0.3505,0,0.3567,0.3568,0.3568,0.3622,0.3622,0.3623,0.3623,0.3689,0.369,0.3691,0,0,0,0,0,0,0,0,0,0,0,0,0,0.3433,0.3434,0.3504,0.3505,0.3506,0.3567,0.3568,0.3569,0.3622,0.3622,0.3623,0.3624,0.3689,0.369,0.3691,0,0,0,0,0,0,0,0,0,0,0,0,0,0.3477,0.3435,0.3504,0.354,0.3543,0.3567,0.3568,0.3569,0.3621,0.3622,0.3623,0.3624,0.3688,0.369,0.3692,0.3685,0,0,0.3697,0.3698,0,0,0,0,0,0,0,0,0.3474,0.3479,0.3534,0.3537,0.3541,0.3587,0.3567,0.3608,0.3621,0.3592,0.3623,0.3624,0.3655,0.3659,0.3669,0.3688,0.3691,0.3697,0.3698,0.3699,0.37,0,0,0,0,0,0,0,0.3471,0.3477,0.3529,0.3534,0.3539,0.3553,0.3561,0.3575,0.3618,0.3594,0.3599,0.3605,0.3657,0.3667,0.3671,0.3692,0.3697,0.3699,0.37,0.3701,0.3713,0.3712,0,0,0,0,0,0,0.3463,0.3474,0.3527,0.3531,0.3509,0.3554,0.3562,0.3572,0.3618,0.3625,0.3604,0.3607,0.3664,0.3669,0.3674,0.3671,0.3699,0.3701,0.3702,0.3713,0.3712,0.3712,0,0,0,0,0,0,0.3461,0.3467,0.3525,0.3504,0.3512,0.3554,0.3565,0.3573,0.3583,0.3625,0.3633,0.3607,0.3665,0.3671,0.3683,0.3674,0.3702,0.3703,0.3714,0.3713,0.3712,0.3664,0,0,0,0,0,0,0.3458,0.3466,0.3463,0.3503,0.3513,0.3531,0.3564,0.3573,0.3586,0.359,0.3629,0.3637,0.3666,0.368,0.3684,0.3677,0.3705,0.3715,0.3714,0.3712,0.3667,0.3662,0.3657,0,0,0,0,0,0.3456,0.3447,0.3462,0.3468,0.351,0.3531,0.3536,0.357,0.3585,0.3583,0.3611,0.3636,0.3674,0.368,0.3686,0.3679,0.3716,0.3714,0.3712,0.3669,0.3663,0.3657,0,0,0,0,0,0,0.3404,0.3452,0.347,0.3474,0.3498,0.354,0.3538,0.3561,0.3582,0.3585,0.3626,0.3635,0.3642,0.3662,0.3668,0.3677,0.3699,0.3698,0.3663,0.3658,0.3653,0.3648,0.3706,0,0,0,0,0,0.3393,0.3405,0.3447,0.3446,0.3457,0.3495,0.3505,0.3529,0.3556,0.3566,0.3594,0.362,0.3638,0.3649,0.3668,0.367,0.3681,0.3668,0.3663,0.3659,0.3658,0.3663,0.3659,0.3706,0.3706,0.3706,0,0,0.337,0.3398,0.3403,0.3436,0.3457,0.347,0.3503,0.3515,0.3525,0.3568,0.3581,0.3603,0.3634,0.3641,0.3646,0.3658,0.3648,0.3657,0.3653,0.3655,0.3661,0.3657,0.3653,0.3705,0.3705,0.3705,0,0,0.3335,0.3357,0.3359,0.338,0.3412,0.3439,0.3439,0.3478,0.3494,0.3508,0.3541,0.3555,0.3584,0.3606,0.3621,0.3597,0.3621,0.3602,0.3577,0.3581,0.3577,0.3574,0.3567,0.3564,0.3601,0.3601,0.36,0,0.3303,0.3322,0.3358,0.3368,0.3382,0.3422,0.3426,0.3445,0.3482,0.3491,0.3504,0.3544,0.3568,0.3582,0.3576,0.3587,0.359,0.3597,0.3575,0.3572,0.357,0.3564,0.3561,0.3598,0.3598,0.3599,0.3599,0,0.3282,0.3295,0.3293,0.3328,0.3342,0.3349,0.3387,0.3398,0.3421,0.3446,0.3461,0.3491,0.3518,0.3523,0.3545,0.3541,0.3548,0.3567,0.359,0.3562,0.3557,0.3555,0.3594,0.3595,0.3596,0.3597,0,0,0.3214,0.327,0.3269,0.3286,0.3326,0.3337,0.3347,0.3373,0.3382,0.3406,0.3417,0.3442,0.3461,0.3478,0.3504,0.3507,0.3489,0.3527,0.3529,0.352,0.3488,0.3474,0.347,0.3506,0.3505,0.3505,0.3486,0,0.3187,0.3205,0.3239,0.3247,0.3261,0.33,0.3309,0.3335,0.336,0.3376,0.3403,0.3421,0.3444,0.3455,0.346,0.349,0.3483,0.3492,0.3517,0.3517,0.3508,0.3467,0.3451,0.3432,0.3484,0.3484,0.3484,0,0.3156,0.3179,0.3188,0.3229,0.3236,0.3243,0.3271,0.3286,0.3317,0.3335,0.3354,0.3383,0.3397,0.3418,0.3439,0.3444,0.3457,0.3473,0.3473,0.3477,0.3499,0.3471,0.3426,0.3424,0.3481,0.3481,0.3481,0,0.3108,0.3141,0.3151,0.3165,0.3212,0.3216,0.3236,0.3268,0.3283,0.3307,0.3318,0.3344,0.3358,0.3379,0.3414,0.3425,0.3432,0.3455,0.3448,0.3448,0.3448,0.3447,0.3405,0.3455,0.3455,0.3455,0.3455,0,0.3073,0.3078,0.313,0.3137,0.3144,0.3184,0.319,0.3214,0.3243,0.3256,0.3292,0.3304,0.3349,0.3367,0.3395,0.341,0.3416,0.3431,0.3439,0.3428,0.3427,0.3437,0.344,0.3454,0.3454,0.3454,0.3454,0,0.302,0.3055,0.3069,0.3113,0.3125,0.3128,0.3167,0.3176,0.3203,0.3219,0.3225,0.3268,0.3291,0.3329,0.3363,0.3382,0.3392,0.3404,0.3381,0.3385,0.3377,0.3378,0.3341,0.3339,0.3388,0.3388,0.3387,0,0.2996,0.3,0.3045,0.3056,0.3075,0.3093,0.3108,0.3148,0.3162,0.32,0.3204,0.323,0.3253,0.3288,0.3323,0.335,0.3364,0.3349,0.3368,0.3358,0.3365,0.3365,0.3366,0.3345,0.3344,0.3343,0.3343,0,0.2949,0.2967,0.2987,0.3014,0.3031,0.3054,0.3079,0.3086,0.3132,0.3147,0.3171,0.3189,0.3224,0.325,0.3282,0.3305,0.3332,0.3337,0.3337,0.3326,0.3313,0.3322,0.337,0.3337,0.3338,0.3338,0.3339,0.3339,0.2911,0.2918,0.2951,0.2973,0.2996,0.3019,0.303,0.3059,0.3079,0.3111,0.3134,0.3157,0.3191,0.3237,0.3258,0.3278,0.3289,0.3289,0.3289,0.3289,0.3285,0.331,0.3283,0.3284,0.3284,0.3284,0.3284,0,0.2868,0.2891,0.2911,0.2945,0.2963,0.2987,0.3016,0.303,0.3049,0.3078,0.31,0.3129,0.3155,0.3193,0.3223,0.3231,0.3245,0.3238,0.3238,0.3243,0.3272,0.327,0.3226,0.3226,0.3226,0.3226,0.3226,0.3226,0.2847,0.286,0.2882,0.2908,0.2933,0.2955,0.297,0.2992,0.3016,0.3046,0.3068,0.3093,0.3126,0.3158,0.3184,0.3195,0.3205,0.3194,0.3208,0.3235,0.324,0.3246,0.3243,0.3195,0.3195,0.3178,0.3177,0.3177]}]]